Location: *
(50.9167°S, 179.4000°W)
Time: 21:21:03
(UTC+00:00)

Cosmos 2360 - Pass Details

Date: 03 March 2024
Orbit: 849 x 853 km, 70.8° (Epoch: 16 April)

Event Time Altitude Azimuth Distance (km) Brightness Sun altitude
Rises 15:30:06 0° 210° (SSW) 3,462 7.5 -18.3°
Reaches altitude 10° 15:32:35 10° 208° (SSW) 2,521 6.8 -18.0°
Maximum altitude 15:38:24 75° 122° (ESE) 900 4.4 -17.2°
Drops below altitude 10° 15:44:09 10° 36° (NE) 2,496 6.7 -16.5°
Sets 15:46:36 0° 34° (NE) 3,425 7.4 -16.2°
